User: anonymous   Login
Location: Space Photons Observatory
(33.2428°N, 111.5467°W)
Time: 03:32:47
(UTC-07:00)
Language:

RESURS DK-1 - Orbit

View from above orbital plane
View from above orbital plane
View from above satellite
View from above satellite

Ground track
Ground track

The orbit data is extracted from the following two-line orbital elements,

1 29228U 06021A   15117.14142624  .00001521  00000-0  12499-3 0  9998
2 29228 069.9368 286.8139 0002012 131.5749 348.0088 15.01440340490688
Epoch (UTC): 27 April 2015 03:23:39
Eccentricity: 0.0002012
inclination: 69.9368°
perigee height: 561 km
apogee height: 564 km
right ascension of ascending node: 286.8139°
argument of perigee: 131.5749°
revolutions per day: 15.01440340
mean anomaly at epoch: 348.0088°
orbit number at epoch: 49068

The dashed part of the orbit path shows where the satellite is in the earth's shadow,  

DLR